When you browse on this site, cookies collect data to enhance your experience and personalize the content and advertising you see.
Visit our Privacy Policy to learn more. By continuing to use the site, you agree to this use of cookies and data.
  • în România
  • Lista ţărilor
  • Pe 7 zile
  • Temperatura apei
  • Hartă satelitară
  • Meteo pe hartă
  • Widget-uri
  • user-avatar
    Intrare

    Meteo pe oră la Gribovka

    Astăzi, 23 Iulie, Marţi

    Timp Temperatura Precipitaţii Vânt Presiune Umiditate
    00:00 +17°C° 0 mm 2 m/s 743 mmHg 83%
    01:00 +17°C° 0 mm 2 m/s 743 mmHg 84%
    02:00 +17°C° 0 mm 2 m/s 743 mmHg 85%
    03:00 +17°C° 0 mm 2 m/s 742 mmHg 91%
    04:00 +17°C° 0.8 mm 2 m/s 742 mmHg 92%
    05:00 +17°C° 0.8 mm 3 m/s 742 mmHg 93%
    06:00 +17°C° 0.8 mm 3 m/s 742 mmHg 95%
    07:00 +17°C° 1.2 mm 4 m/s 742 mmHg 94%
    08:00 +18°C° 1.2 mm 4 m/s 741 mmHg 94%
    09:00 +17°C° 1.2 mm 5 m/s 741 mmHg 93%
    10:00 +19°C° 0.5 mm 5 m/s 741 mmHg 91%
    11:00 +20°C° 0.5 mm 6 m/s 741 mmHg 89%
    12:00 +20°C° 0.5 mm 6 m/s 741 mmHg 86%
    13:00 +21°C° 1.3 mm 6 m/s 741 mmHg 86%
    14:00 +21°C° 1.3 mm 5 m/s 741 mmHg 86%
    15:00 +21°C° 1.3 mm 5 m/s 741 mmHg 85%
    16:00 +21°C° 0.5 mm 5 m/s 741 mmHg 85%
    17:00 +22°C° 0.5 mm 4 m/s 741 mmHg 85%
    18:00 +22°C° 0.5 mm 3 m/s 740 mmHg 85%
    19:00 +20°C° 0.2 mm 3 m/s 740 mmHg 88%
    20:00 +19°C° 0.2 mm 3 m/s 740 mmHg 90%
    21:00 +18°C° 0.2 mm 2 m/s 740 mmHg 93%
    22:00 +18°C° 0 mm 2 m/s 740 mmHg 93%
    23:00 +17°C° 0 mm 2 m/s 740 mmHg 94%

    Mâine, 24 Iulie, Miercuri

    Timp Temperatura Precipitaţii Vânt Presiune Umiditate
    00:00 +16°C° 0 mm 2 m/s 740 mmHg 95%
    01:00 +16°C° 0 mm 2 m/s 740 mmHg 94%
    02:00 +16°C° 0 mm 2 m/s 740 mmHg 94%
    03:00 +15°C° 0 mm 1 m/s 740 mmHg 94%
    04:00 +16°C° 0 mm 1 m/s 740 mmHg 94%
    05:00 +16°C° 0 mm 1 m/s 740 mmHg 94%
    06:00 +16°C° 0 mm 1 m/s 740 mmHg 93%
    07:00 +19°C° 0.2 mm 1 m/s 740 mmHg 90%
    08:00 +20°C° 0.2 mm 1 m/s 741 mmHg 87%
    09:00 +20°C° 0.2 mm 2 m/s 741 mmHg 84%
    10:00 +20°C° 1 mm 2 m/s 741 mmHg 82%
    11:00 +21°C° 1 mm 2 m/s 741 mmHg 80%
    12:00 +21°C° 1 mm 2 m/s 741 mmHg 78%
    13:00 +20°C° 0.3 mm 2 m/s 741 mmHg 81%
    14:00 +20°C° 0.3 mm 3 m/s 741 mmHg 83%
    15:00 +19°C° 0.3 mm 3 m/s 741 mmHg 86%
    16:00 +20°C° 0.1 mm 3 m/s 741 mmHg 85%
    17:00 +20°C° 0.1 mm 3 m/s 741 mmHg 84%
    18:00 +20°C° 0.1 mm 2 m/s 741 mmHg 83%
    19:00 +19°C° 0.3 mm 2 m/s 741 mmHg 86%
    20:00 +18°C° 0.3 mm 2 m/s 741 mmHg 90%
    21:00 +17°C° 0.3 mm 2 m/s 741 mmHg 93%
    22:00 +17°C° 0 mm 2 m/s 741 mmHg 93%
    23:00 +16°C° 0 mm 1 m/s 741 mmHg 93%

    Poimâine, 25 Iulie, Joi

    Timp Temperatura Precipitaţii Vânt Presiune Umiditate
    00:00 +16°C° 0 mm 1 m/s 741 mmHg 93%
    01:00 +16°C° 0 mm 1 m/s 741 mmHg 93%
    02:00 +16°C° 0 mm 1 m/s 741 mmHg 93%
    03:00 +16°C° 0 mm 1 m/s 741 mmHg 92%
    04:00 +15°C° 0 mm 0 m/s 741 mmHg 92%
    05:00 +15°C° 0 mm 0 m/s 741 mmHg 92%
    06:00 +15°C° 0 mm 0 m/s 742 mmHg 92%
    07:00 +18°C° 0 mm 1 m/s 742 mmHg 89%
    08:00 +19°C° 0 mm 1 m/s 742 mmHg 86%
    09:00 +20°C° 0 mm 1 m/s 742 mmHg 84%
    10:00 +20°C° 0.2 mm 2 m/s 742 mmHg 81%
    11:00 +21°C° 0.2 mm 2 m/s 742 mmHg 79%
    12:00 +22°C° 0.2 mm 3 m/s 742 mmHg 77%
    13:00 +22°C° 1 mm 3 m/s 742 mmHg 79%
    14:00 +22°C° 1 mm 3 m/s 742 mmHg 80%
    15:00 +22°C° 1 mm 4 m/s 742 mmHg 82%
    16:00 +21°C° 1 mm 4 m/s 742 mmHg 84%
    17:00 +21°C° 1 mm 4 m/s 742 mmHg 86%
    18:00 +20°C° 1 mm 5 m/s 742 mmHg 88%
    19:00 +19°C° 0.1 mm 4 m/s 742 mmHg 90%
    20:00 +19°C° 0.1 mm 4 m/s 742 mmHg 92%
    21:00 +18°C° 0.1 mm 3 m/s 742 mmHg 94%
    22:00 +17°C° 0.1 mm 3 m/s 742 mmHg 95%
    23:00 +17°C° 0.1 mm 3 m/s 743 mmHg 95%

    26 Iulie, Vineri

    Timp Temperatura Precipitaţii Vânt Presiune Umiditate
    00:00 +17°C° 0.1 mm 3 m/s 743 mmHg 96%
    01:00 +17°C° 0.5 mm 3 m/s 743 mmHg 96%
    02:00 +17°C° 0.5 mm 3 m/s 743 mmHg 96%
    03:00 +18°C° 0.5 mm 3 m/s 743 mmHg 97%
    04:00 +17°C° 0.5 mm 3 m/s 743 mmHg 97%
    05:00 +17°C° 0.5 mm 3 m/s 743 mmHg 97%
    06:00 +17°C° 0.5 mm 3 m/s 743 mmHg 97%
    07:00 +18°C° 0.1 mm 4 m/s 743 mmHg 94%
    08:00 +20°C° 0.1 mm 4 m/s 743 mmHg 91%
    09:00 +21°C° 0.1 mm 5 m/s 743 mmHg 88%
    10:00 +22°C° 0.1 mm 5 m/s 743 mmHg 84%
    11:00 +23°C° 0.1 mm 5 m/s 743 mmHg 79%
    12:00 +24°C° 0.1 mm 6 m/s 743 mmHg 74%
    13:00 +24°C° 0.5 mm 6 m/s 742 mmHg 75%
    14:00 +24°C° 0.5 mm 6 m/s 742 mmHg 75%
    15:00 +24°C° 0.5 mm 6 m/s 742 mmHg 76%
    16:00 +23°C° 0.8 mm 6 m/s 742 mmHg 79%
    17:00 +23°C° 0.8 mm 5 m/s 742 mmHg 81%
    18:00 +22°C° 0.8 mm 4 m/s 742 mmHg 84%
    19:00 +21°C° 0.3 mm 4 m/s 742 mmHg 86%
    20:00 +20°C° 0.3 mm 4 m/s 742 mmHg 89%
    21:00 +19°C° 0.3 mm 3 m/s 742 mmHg 91%
    22:00 +19°C° 0 mm 3 m/s 742 mmHg 92%
    23:00 +18°C° 0 mm 4 m/s 741 mmHg 93%

    27 Iulie, Sâmbătă

    Timp Temperatura Precipitaţii Vânt Presiune Umiditate
    00:00 +18°C° 0 mm 4 m/s 741 mmHg 94%
    01:00 +17°C° 0 mm 3 m/s 741 mmHg 95%
    02:00 +17°C° 0 mm 3 m/s 741 mmHg 96%
    03:00 +17°C° 0 mm 3 m/s 741 mmHg 96%
    04:00 +17°C° 0 mm 3 m/s 741 mmHg 96%
    05:00 +17°C° 0 mm 3 m/s 741 mmHg 96%
    06:00 +17°C° 0 mm 4 m/s 741 mmHg 95%
    07:00 +19°C° 0 mm 4 m/s 741 mmHg 92%
    08:00 +20°C° 0 mm 5 m/s 741 mmHg 89%
    09:00 +21°C° 0 mm 5 m/s 741 mmHg 85%
    10:00 +22°C° 0.2 mm 5 m/s 741 mmHg 81%
    11:00 +23°C° 0.2 mm 6 m/s 741 mmHg 78%
    12:00 +24°C° 0.2 mm 6 m/s 740 mmHg 74%
    13:00 +25°C° 0.3 mm 5 m/s 740 mmHg 72%
    14:00 +26°C° 0.3 mm 5 m/s 740 mmHg 70%
    15:00 +26°C° 0.3 mm 4 m/s 740 mmHg 68%
    16:00 +26°C° 0.2 mm 4 m/s 739 mmHg 70%
    17:00 +26°C° 0.2 mm 3 m/s 739 mmHg 73%
    18:00 +26°C° 0.2 mm 2 m/s 739 mmHg 75%
    19:00 +24°C° 0.1 mm 2 m/s 739 mmHg 79%
    20:00 +21°C° 0.1 mm 2 m/s 739 mmHg 84%
    21:00 +19°C° 0.1 mm 2 m/s 739 mmHg 89%
    22:00 +19°C° 0 mm 2 m/s 739 mmHg 90%
    23:00 +18°C° 0 mm 2 m/s 738 mmHg 91%

    28 Iulie, Duminică

    Timp Temperatura Precipitaţii Vânt Presiune Umiditate
    00:00 +18°C° 0 mm 2 m/s 738 mmHg 93%
    01:00 +18°C° 0 mm 2 m/s 738 mmHg 93%
    02:00 +17°C° 0 mm 3 m/s 737 mmHg 93%
    03:00 +17°C° 0 mm 3 m/s 737 mmHg 93%
    04:00 +17°C° 0 mm 3 m/s 737 mmHg 93%
    05:00 +17°C° 0 mm 4 m/s 737 mmHg 94%
    06:00 +16°C° 0 mm 5 m/s 736 mmHg 94%
    07:00 +16°C° 0.2 mm 5 m/s 737 mmHg 92%
    08:00 +16°C° 0.2 mm 6 m/s 737 mmHg 91%
    09:00 +16°C° 0.2 mm 7 m/s 737 mmHg 90%
    10:00 +16°C° 0 mm 7 m/s 737 mmHg 85%
    11:00 +16°C° 0 mm 7 m/s 738 mmHg 79%
    12:00 +16°C° 0 mm 7 m/s 738 mmHg 74%
    13:00 +16°C° 0 mm 7 m/s 738 mmHg 72%
    14:00 +16°C° 0 mm 7 m/s 738 mmHg 69%
    15:00 +16°C° 0 mm 7 m/s 738 mmHg 66%
    16:00 +15°C° 0 mm 7 m/s 738 mmHg 67%
    17:00 +14°C° 0 mm 7 m/s 739 mmHg 69%
    18:00 +12°C° 0 mm 7 m/s 739 mmHg 70%
    19:00 +11°C° 0 mm 6 m/s 739 mmHg 69%
    20:00 +10°C° 0 mm 5 m/s 739 mmHg 68%
    21:00 +10°C° 0 mm 4 m/s 739 mmHg 68%
    22:00 +10°C° 0 mm 4 m/s 739 mmHg 68%
    23:00 +10°C° 0 mm 4 m/s 740 mmHg 68%
    Arată mai mult